Location: Stockholm
(59.3330°N, 18.0500°E)
Time: 05:25:14
(UTC+02:00)

NOAA 18 - Pass Details

Date: 10 April 2023
Orbit: 838 x 860 km, 98.9° (Epoch: 31 May)

Event Time Altitude Azimuth Distance (km) Brightness Sun altitude
Exits shadow 21:15:03 13° 127° (SE) 2,265 6.7 -10.3°
Maximum altitude 21:19:40 46° 59° (ENE) 1,150 5.8 -10.8°
Drops below altitude 10° 21:24:57 10° 348° (NNW) 2,506 8.5 -11.3°
Sets 21:27:24 0° 343° (NNW) 3,444 9.4 -11.6°
